Weather History for 78774 - November, 2012

Change the Weather History Date:

Tuesday, November 27, 2012

  Actual Average Record
Temperature  
Mean Temperature 82 °F -  
Max Temperature 92 °F 87 °F - ()
Min Temperature 72 °F 72 °F - ()
Cooling Degree Days 17    
Growing Degree Days 32 (Base 50)    
Moisture  
Dew Point 71 °F    
Average Humidity 61    
Maximum Humidity 83    
Minimum Humidity 42    
Precipitation  
Precipitation 0.00 in - - ()
Sea Level Pressure  
Sea Level Pressure 29.84 in    
Wind  
Wind Speed 9 mph ()    
Max Wind Speed 17 mph    
Max Gust Speed 28 mph    
Visibility 7.7 miles    
Events      
T = Trace of Precipitation, MM = Missing Value Source: Averaged Metar Reports

Daily Weather History Graph

Daily Weather History Graph

Search for Another Location

Airport or City:

Trip Planner

Search our weather history database for the weather conditions in past years. The results will help you decide how hot, cold, wet, or windy it might be!

Date:

Astronomy

Nov. 27, 2012 Rise Set
Actual Time 5:42 AM CST 5:17 PM CST
Civil Twilight 5:20 AM CST 5:39 PM CST
Nautical Twilight 4:54 AM CST 6:05 PM CST
Astronomical Twilight 4:28 AM CST 6:31 PM CST
Moon 4:45 PM CST (11/27) 4:51 AM CST (11/27)
Length of Visible Light 12h 19m
Length of Day
11h 34m
Waxing Gibbous, 99% of the Moon is Illuminated
Nov 27
Waxing Gibbous
Nov 28
Full
Dec 6
Last Quarter
Dec 13
New
Dec 19
First Quarter

Hourly Weather History & Observations

Time (CST) Temp. Heat Index Dew Point Humidity Pressure Visibility Wind Dir Wind Speed Gust Speed Precip Events Conditions
6:00 AM 74 °F - 70 °F 83% 29.87 in 12 mi SSE 5.8 mph - -   Partly Cloudy
6:00 AM 75.2 °F - 69.8 °F 83% 29.85 in 6.2 mi SSE 5.8 mph - N/A   Scattered Clouds
7:00 AM 78.8 °F - 69.8 °F 74% 29.87 in 6.2 mi SW 4.6 mph - N/A   Scattered Clouds
8:00 AM 82.4 °F 87.2 °F 71.6 °F 70% 29.88 in 6.2 mi SW 5.8 mph - N/A   Scattered Clouds
9:00 AM 87 °F - 72 °F 51% 29.90 in 12 mi ESE 8.1 mph - -   Scattered Clouds
9:00 AM 87.8 °F 93.8 °F 71.6 °F 58% 29.88 in 6.2 mi ESE 8.1 mph - N/A   Scattered Clouds
10:00 AM 87.8 °F 92.6 °F 69.8 °F 55% 29.88 in 6.2 mi ENE 17.3 mph - N/A   Scattered Clouds
11:00 AM 89.6 °F 96.2 °F 71.6 °F 55% 29.86 in 6.2 mi ENE 16.1 mph 27.6 mph N/A   Scattered Clouds
12:00 PM 90 °F - 70 °F 43% 29.85 in 12 mi East 16.1 mph - -   Partly Cloudy
12:00 PM 89.6 °F 94.7 °F 69.8 °F 52% 29.83 in 6.2 mi East 16.1 mph - N/A   Scattered Clouds
1:00 PM 91.4 °F 98.4 °F 71.6 °F 52% 29.82 in 6.2 mi ENE 15.0 mph - N/A   Scattered Clouds
2:00 PM 89.6 °F 96.2 °F 71.6 °F 55% 29.78 in 6.2 mi NE 13.8 mph - N/A   Overcast
3:00 PM 90 °F - 70 °F 42% 29.78 in 12 mi NE 16.1 mph - -   Overcast
3:00 PM 89.6 °F 94.7 °F 69.8 °F 52% 29.76 in 6.2 mi NE 16.1 mph - N/A   Overcast
4:00 PM 89.6 °F 94.7 °F 69.8 °F 52% 29.77 in 6.2 mi NE 15.0 mph - N/A   Mostly Cloudy
5:00 PM 86.0 °F 91.8 °F 71.6 °F 62% 29.80 in 6.2 mi NE 16.1 mph - N/A   Scattered Clouds
6:00 PM 83 °F - 71 °F 60% 29.83 in 12 mi ENE 12.7 mph - -   Overcast
6:00 PM 82.4 °F 87.2 °F 71.6 °F 70% 29.82 in 6.2 mi ENE 12.7 mph - N/A   Mostly Cloudy
7:00 PM 80.6 °F 84.6 °F 71.6 °F 74% 29.84 in 6.2 mi NE 11.5 mph - N/A   Overcast
8:00 PM 80.6 °F 83.9 °F 69.8 °F 70% 29.86 in 6.2 mi ENE 10.4 mph - N/A   Overcast